Total_Precipitation_Accumulation
1.08 1.06 0.89 0.75 0.25 0.22 0.13 0.10 0.07 0.03 0.04 0.04 0.01 0.03 0.03 0.00 0.00 0.00 0.00 0.00 0.00 0.00 0.00 0.00 0.00 0.00 0.00 0.00 0.00 0.00 0.00 0.00 0.00 0.00 0.00 0.00 0.00 0.00 0.00 0.00 0.00 0.00 0.00 0.00 0.00 0.00 0.00 0.00 0.00 0.00 0.00 0.00 0.00 0.00 0.00 0.00 0.00 0.00 0.00 0.00 0.00 0.00 0.00 0.00 0.00 0.00 0.00 0.00 0.00 0.00 0.00 0.00 0.00 0.00 0.00 0.00 0.00 0.00 0.00 0.00 0.00 0.00 0.00 0.00 0.00
0.52 0.69 0.68 0.57 0.13 0.37 0.48 0.31 0.32 0.03 0.01 0.06 0.04 0.08 0.02 0.00 0.01 0.00 0.00 0.00 0.01 0.00 0.00 0.00 0.00 0.00 0.00 0.00 0.00 0.00 0.00 0.00 0.00 0.00 0.00 0.00 0.00 0.00 0.00 0.00 0.00 0.00 0.00 0.00 0.00 0.00 0.00 0.00 0.00 0.00 0.00 0.00 0.00 0.00 0.00 0.00 0.00 0.00 0.00 0.00 0.00 0.00 0.00 0.00 0.00 0.00 0.00 0.00 0.00 0.00 0.00 0.00 0.00 0.00 0.00 0.00 0.00 0.00 0.00 0.00 0.00 0.00 0.00 0.00 0.00
0.11 0.16 0.16 0.09 0.06 0.45 0.48 0.40 0.25 0.08 0.01 0.02 0.07 0.11 0.04 0.15 0.04 0.01 0.01 0.01 0.01 0.00 0.01 0.01 0.01 0.00 0.00 0.00 0.00 0.00 0.00 0.00 0.00 0.00 0.00 0.00 0.00 0.00 0.00 0.00 0.00 0.00 0.00 0.00 0.00 0.00 0.00 0.00 0.00 0.00 0.00 0.00 0.00 0.00 0.00 0.00 0.00 0.00 0.00 0.00 0.00 0.00 0.00 0.00 0.00 0.00 0.00 0.00 0.00 0.00 0.00 0.00 0.00 0.00 0.00 0.00 0.00 0.00 0.00 0.00 0.00 0.00 0.00 0.00 0.00
0.56 0.40 0.14 0.15 0.43 0.87 0.55 0.41 0.32 0.12 0.07 0.06 0.08 0.01 0.01 0.04 0.06 0.15 0.04 0.09 0.01 0.01 0.01 0.00 0.00 0.00 0.00 0.00 0.00 0.00 0.00 0.00 0.00 0.00 0.00 0.00 0.00 0.00 0.00 0.00 0.00 0.00 0.00 0.00 0.00 0.00 0.00 0.00 0.00 0.00 0.00 0.00 0.00 0.00 0.00 0.00 0.00 0.00 0.00 0.00 0.00 0.00 0.00 0.00 0.00 0.00 0.00 0.00 0.00 0.00 0.00 0.00 0.00 0.00 0.00 0.00 0.00 0.00 0.00 0.00 0.00 0.00 0.00 0.00 0.00
0.23 0.22 0.95 0.79 0.52 0.49 0.64 0.79 0.60 0.36 0.27 0.46 0.22 0.03 0.02 0.10 0.28 0.29 0.10 0.13 0.14 0.10 0.01 0.00 0.00 0.00 0.01 0.01 0.00 0.00 0.00 0.00 0.00 0.00 0.00 0.00 0.00 0.00 0.00 0.00 0.00 0.00 0.00 0.00 0.00 0.00 0.00 0.00 0.00 0.00 0.00 0.00 0.00 0.00 0.00 0.00 0.00 0.00 0.00 0.00 0.00 0.00 0.00 0.00 0.00 0.00 0.00 0.00 0.00 0.00 0.00 0.00 0.00 0.00 0.00 0.00 0.00 0.00 0.00 0.00 0.00 0.00 0.00 0.00 0.00
1.12 1.02 0.89 0.39 0.62 1.68 1.13 0.86 0.69 0.59 0.65 0.50 0.44 0.61 0.43 0.32 0.27 0.16 0.07 0.17 0.13 0.09 0.07 0.12 0.05 0.11 0.18 0.01 0.03 0.04 0.02 0.00 0.00 0.00 0.00 0.00 0.00 0.00 0.00 0.00 0.01 0.01 0.01 0.00 0.00 0.00 0.00 0.00 0.00 0.00 0.00 0.00 0.00 0.00 0.00 0.00 0.00 0.00 0.00 0.00 0.00 0.00 0.00 0.00 0.00 0.00 0.00 0.00 0.00 0.00 0.00 0.00 0.00 0.00 0.00 0.00 0.00 0.00 0.00 0.00 0.00 0.00 0.00 0.00 0.00
1.10 1.36 1.21 1.43 1.66 0.70 0.86 1.72 1.65 1.80 1.36 1.26 1.17 0.68 0.71 0.77 0.72 0.54 0.31 0.25 0.36 0.52 0.47 0.37 0.32 0.19 0.09 0.02 0.02 0.01 0.06 0.08 0.03 0.02 0.02 0.04 0.02 0.02 0.02 0.02 0.01 0.00 0.01 0.01 0.01 0.00 0.01 0.01 0.00 0.00 0.00 0.01 0.07 0.00 0.01 0.00 0.00 0.00 0.00 0.00 0.00 0.00 0.00 0.00 0.00 0.00 0.00 0.00 0.00 0.00 0.00 0.00 0.00 0.00 0.00 0.00 0.00 0.00 0.00 0.00 0.00 0.00 0.00 0.00 0.00
0.94 0.73 0.87 1.33 0.82 1.15 1.10 1.36 1.11 1.08 1.17 1.24 1.36 1.01 1.03 0.86 0.78 0.70 0.75 0.51 0.56 0.51 0.50 0.45 0.39 0.21 0.19 0.19 0.20 0.14 0.10 0.17 0.17 0.14 0.12 0.15 0.07 0.05 0.05 0.03 0.04 0.04 0.04 0.03 0.06 0.26 0.29 0.05 0.06 0.44 0.23 0.02 0.01 0.00 0.00 0.00 0.00 0.00 0.00 0.00 0.00 0.00 0.00 0.00 0.00 0.00 0.00 0.00 0.00 0.00 0.00 0.00 0.00 0.00 0.00 0.00 0.00 0.00 0.00 0.00 0.00 0.00 0.00 0.00 0.00
0.14 0.39 0.40 0.53 1.01 0.79 1.05 1.06 0.70 0.68 0.88 1.25 1.33 1.32 1.04 0.79 0.65 0.59 0.48 0.39 0.41 0.38 0.41 0.47 0.21 0.18 0.16 0.14 0.14 0.26 0.14 0.18 0.12 0.25 0.20 0.19 0.12 0.12 0.15 0.12 0.09 0.06 0.05 0.02 0.02 0.05 0.05 0.10 0.04 0.00 0.00 0.00 0.00 0.00 0.01 0.00 0.00 0.00 0.00 0.00 0.00 0.00 0.00 0.00 0.00 0.00 0.00 0.00 0.00 0.00 0.00 0.00 0.00 0.00 0.00 0.00 0.00 0.00 0.00 0.00 0.00 0.00 0.00 0.00 0.00
0.19 0.32 0.37 0.28 0.53 0.89 0.65 0.56 0.91 0.77 1.30 0.82 0.57 0.75 0.77 0.72 0.49 0.41 0.48 0.48 0.33 0.30 0.23 0.24 0.27 0.33 0.24 0.17 0.58 0.40 0.66 0.23 0.22 0.10 0.09 0.12 0.14 0.13 0.06 0.08 0.07 0.04 0.04 0.04 0.07 0.07 0.04 0.03 0.08 0.12 0.04 0.00 0.00 0.00 0.00 0.00 0.00 0.00 0.00 0.01 0.00 0.00 0.00 0.00 0.01 0.00 0.00 0.00 0.00 0.00 0.00 0.00 0.00 0.00 0.00 0.00 0.00 0.00 0.00 0.00 0.00 0.00 0.00 0.00 0.00
0.23 0.21 0.45 0.23 0.71 0.69 0.76 1.45 1.18 1.61 1.20 0.50 0.67 0.92 0.45 0.45 0.32 0.09 0.10 0.12 0.22 0.39 0.35 0.38 0.24 1.04 0.48 0.39 0.22 0.09 0.05 0.03 0.04 0.04 0.02 0.01 0.01 0.01 0.15 0.11 0.05 0.04 0.05 0.07 0.04 0.11 0.07 0.28 0.57 0.32 0.07 0.06 0.76 0.06 0.04 0.01 0.02 0.00 0.00 0.00 0.00 0.02 0.00 0.00 0.00 0.00 0.00 0.01 0.00 0.00 0.00 0.00 0.00 0.00 0.00 0.00 0.00 0.00 0.00 0.00 0.00 0.00 0.00 0.00 0.00
0.21 0.41 0.26 0.25 0.36 0.54 0.57 0.35 0.70 0.82 0.67 0.51 0.40 0.86 0.61 0.41 0.39 0.37 0.21 0.34 0.80 0.53 0.09 0.11 0.42 0.46 0.47 0.35 0.35 0.35 0.24 0.24 0.10 0.08 0.02 0.01 0.02 0.09 0.06 0.03 0.04 0.03 0.04 0.04 0.06 0.12 0.50 0.66 0.74 0.22 0.11 0.10 0.10 0.15 0.09 0.07 0.04 0.01 0.00 0.00 0.00 0.00 0.00 0.00 0.00 0.00 0.00 0.00 0.00 0.00 0.00 0.00 0.00 0.00 0.00 0.00 0.00 0.00 0.00 0.00 0.00 0.00 0.00 0.00 0.00
0.17 0.05 0.07 0.03 0.08 0.06 0.22 0.16 0.07 0.22 0.21 0.16 0.18 0.36 0.38 0.18 0.27 0.45 0.48 0.34 0.24 0.15 0.26 0.22 0.17 0.12 0.11 0.44 0.45 0.86 0.89 0.32 0.23 0.16 0.19 0.18 0.19 0.21 0.08 0.08 0.06 0.14 0.08 0.07 0.21 0.35 0.36 0.43 0.32 0.42 0.09 0.05 0.03 0.04 0.02 0.01 0.00 0.00 0.00 0.00 0.00 0.00 0.00 0.00 0.00 0.00 0.00 0.00 0.00 0.00 0.00 0.00 0.00 0.00 0.00 0.00 0.00 0.00 0.00 0.00 0.00 0.00 0.00 0.00 0.00
0.01 0.04 0.01 0.02 0.05 0.00 0.00 0.07 0.23 0.10 0.09 0.02 0.07 0.11 0.06 0.09 0.25 0.33 0.27 0.22 0.27 0.36 0.18 0.06 0.09 0.36 0.20 0.07 0.16 0.48 0.99 0.34 0.23 0.14 0.09 0.07 0.08 0.11 0.08 0.05 0.06 0.08 0.11 0.40 0.68 0.74 0.96 0.31 0.30 0.31 0.22 0.11 0.16 0.07 0.06 0.03 0.04 0.03 0.02 0.02 0.01 0.00 0.00 0.00 0.00 0.00 0.00 0.00 0.00 0.00 0.02 0.00 0.00 0.00 0.00 0.00 0.00 0.00 0.00 0.00 0.00 0.00 0.00 0.00 0.00
0.01 0.00 0.00 0.00 0.01 0.00 0.00 0.00 0.00 0.00 0.00 0.00 0.02 0.08 0.17 0.13 0.02 0.05 0.05 0.10 0.21 0.26 0.09 0.12 0.13 0.34 0.29 0.33 0.50 0.55 0.39 0.31 0.11 0.09 0.12 0.05 0.07 0.06 0.20 0.13 0.13 0.09 0.36 0.92 0.39 0.14 0.25 0.18 0.14 0.13 0.14 0.11 0.11 0.04 0.04 0.01 0.01 0.02 0.02 0.01 0.00 0.00 0.00 0.00 0.00 0.02 0.00 0.00 0.00 0.00 0.00 0.02 0.00 0.00 0.00 0.00 0.03 0.02 0.00 0.00 0.00 0.00 0.00 0.00 0.00
0.00 0.00 0.00 0.00 0.02 0.02 0.00 0.00 0.00 0.01 0.00 0.00 0.00 0.01 0.01 0.03 0.04 0.04 0.03 0.03 0.08 0.13 0.09 0.15 0.14 0.15 0.15 0.18 0.19 0.96 0.97 0.25 0.19 0.11 0.04 0.13 0.30 0.21 0.16 0.20 0.26 0.29 1.03 0.48 0.34 0.20 0.12 0.05 0.07 0.02 0.05 0.04 0.01 0.00 0.00 0.01 0.00 0.00 0.00 0.00 0.01 0.01 0.00 0.00 0.00 0.00 0.00 0.00 0.00 0.03 0.01 0.22 0.02 0.02 0.16 0.03 0.01 0.00 0.00 0.00 0.00 0.00 0.00 0.00 0.00
0.02 0.02 0.04 0.01 0.01 0.01 0.00 0.00 0.00 0.00 0.00 0.00 0.00 0.00 0.00 0.01 0.01 0.02 0.02 0.02 0.02 0.04 0.07 0.05 0.04 0.08 0.05 0.15 0.15 0.25 0.10 0.11 0.01 0.01 0.00 0.01 0.13 0.05 0.03 0.13 0.22 0.40 0.27 0.11 0.64 0.81 0.17 0.27 0.55 0.21 0.27 0.14 0.01 0.00 0.02 0.09 0.67 0.59 0.21 0.00 0.00 0.01 0.03 0.00 0.00 0.00 0.00 0.00 0.00 0.00 0.00 0.00 0.01 0.00 0.00 0.01 0.28 0.02 0.02 0.08 0.01 0.06 0.34 0.07 0.02
0.12 0.06 0.10 0.04 0.02 0.00 0.00 0.00 0.00 0.00 0.00 0.00 0.00 0.00 0.00 0.00 0.00 0.00 0.01 0.02 0.02 0.02 0.03 0.03 0.03 0.05 0.13 0.08 0.15 0.37 0.62 0.47 0.02 0.00 0.00 0.00 0.08 0.05 0.27 0.15 0.16 0.08 0.08 0.13 0.09 0.14 0.43 0.04 0.03 0.46 0.13 0.08 0.01 0.00 0.01 0.11 0.34 0.17 0.01 0.01 0.11 0.07 0.07 0.03 0.14 0.21 0.13 0.10 0.11 0.11 0.30 0.04 0.01 0.01 0.10 0.25 0.41 0.29 0.32 0.44 0.33 0.14 0.13 0.09 0.04
0.34 0.34 0.02 0.04 0.02 0.01 0.00 0.00 0.01 0.00 0.00 0.00 0.00 0.00 0.01 0.01 0.00 0.00 0.00 0.00 0.01 0.03 0.02 0.02 0.03 0.04 0.06 0.14 0.11 0.09 0.09 0.02 0.00 0.00 0.00 0.00 0.04 0.23 0.14 0.06 0.05 0.16 0.22 0.10 0.03 0.01 0.04 0.05 0.01 0.04 0.31 0.05 0.19 0.00 0.01 0.32 0.41 0.14 0.26 0.19 0.48 0.19 0.07 0.05 0.07 0.26 0.69 0.68 0.69 0.43 0.34 0.23 0.57 0.10 0.16 0.07 0.04 0.05 0.15 0.19 0.06 0.03 0.01 0.02 0.04
0.12 0.09 0.11 0.04 0.11 0.13 0.08 0.01 0.00 0.01 0.02 0.00 0.03 0.04 0.02 0.01 0.00 0.00 0.00 0.00 0.02 0.03 0.02 0.02 0.03 0.03 0.05 0.03 0.03 0.07 0.12 0.04 0.00 0.00 0.00 0.00 0.00 0.11 0.06 0.03 0.31 0.06 0.14 0.04 0.02 0.04 0.04 0.02 0.14 0.12 0.08 0.01 0.36 0.45 0.19 0.03 0.11 0.12 0.06 0.19 0.59 0.13 0.03 0.18 0.53 0.36 0.20 0.29 0.15 0.03 0.01 0.01 0.02 0.07 0.01 0.02 0.04 0.01 0.00 0.00 0.00 0.01 0.02 0.06 0.01
0.01 0.02 0.02 0.01 0.02 0.02 0.02 0.04 0.04 0.10 0.05 0.06 0.01 0.01 0.02 0.00 0.00 0.00 0.01 0.02 0.03 0.02 0.01 0.01 0.02 0.01 0.01 0.03 0.05 0.09 0.16 0.04 0.03 0.00 0.00 0.00 0.00 0.00 0.03 0.08 0.11 0.13 0.07 0.04 0.02 0.03 0.01 0.05 0.10 0.08 0.04 0.14 0.27 0.06 0.07 0.16 0.38 0.71 0.09 0.08 0.19 0.58 1.05 0.86 0.35 0.14 0.31 0.30 0.19 0.18 0.06 0.15 0.12 0.06 0.14 0.03 0.04 0.03 0.07 0.00 0.01 0.06 0.09 0.02 0.01
0.02 0.02 0.00 0.00 0.00 0.00 0.01 0.01 0.01 0.00 0.00 0.00 0.00 0.00 0.00 0.01 0.01 0.04 0.01 0.03 0.01 0.01 0.01 0.01 0.02 0.01 0.01 0.01 0.08 0.12 0.05 0.02 0.01 0.03 0.00 0.00 0.00 0.01 0.01 0.05 0.17 0.12 0.13 0.12 0.12 0.03 0.02 0.06 0.12 0.02 0.03 0.05 0.18 0.42 0.17 0.04 0.29 1.23 0.11 0.31 0.76 0.17 0.41 0.17 0.16 0.05 0.04 0.21 0.08 0.03 0.03 0.06 0.05 0.03 0.04 0.03 0.05 0.04 0.00 0.06 0.02 0.03 0.11 0.08 0.04
0.00 0.01 0.01 0.00 0.02 0.00 0.00 0.00 0.00 0.00 0.00 0.00 0.00 0.00 0.01 0.00 0.01 0.01 0.02 0.04 0.03 0.02 0.03 0.02 0.03 0.03 0.07 0.02 0.05 0.05 0.06 0.02 0.00 0.01 0.02 0.01 0.00 0.01 0.01 0.05 0.05 0.07 0.14 0.25 0.13 0.07 0.13 0.20 0.09 0.07 0.33 0.65 0.54 0.45 0.39 0.32 0.55 0.67 0.65 0.54 0.24 0.34 0.47 0.15 0.15 0.11 0.02 0.02 0.05 0.08 0.05 0.04 0.04 0.03 0.09 0.11 0.09 0.08 0.07 0.07 0.10 0.07 0.08 0.04 0.03
0.00 0.00 0.00 0.00 0.00 0.01 0.01 0.00 0.00 0.00 0.00 0.00 0.00 0.00 0.01 0.02 0.01 0.01 0.01 0.01 0.03 0.03 0.02 0.01 0.05 0.10 0.08 0.04 0.09 0.11 0.10 0.05 0.03 0.01 0.02 0.00 0.01 0.07 0.29 0.39 0.30 0.27 0.40 0.32 0.09 0.13 0.28 0.43 0.12 0.08 0.09 0.13 0.11 0.15 0.24 0.10 0.08 0.02 0.03 0.06 0.13 0.11 0.19 0.15 0.11 0.04 0.05 0.02 0.03 0.03 0.02 0.02 0.06 0.06 0.14 0.08 0.06 0.07 0.08 0.07 0.04 0.03 0.03 0.03 0.04
0.00 0.00 0.00 0.00 0.00 0.00 0.00 0.06 0.02 0.10 0.01 0.01 0.01 0.02 0.09 0.21 0.01 0.01 0.01 0.01 0.02 0.05 0.02 0.02 0.02 0.12 0.11 0.20 0.11 0.13 0.04 0.12 0.22 0.40 0.04 0.06 0.08 0.13 0.25 0.26 0.55 0.32 0.21 0.06 0.04 0.26 0.09 0.06 0.02 0.03 0.05 0.00 0.01 0.05 0.11 0.06 0.13 0.24 0.22 0.20 0.10 0.29 0.13 0.23 0.19 0.13 0.10 0.08 0.10 0.06 0.05 0.07 0.11 0.10 0.07 0.07 0.08 0.13 0.06 0.06 0.04 0.02 0.02 0.04 0.02
0.00 0.00 0.00 0.00 0.00 0.00 0.00 0.00 0.00 0.00 0.02 0.21 0.02 0.02 0.02 0.04 0.18 0.36 0.14 0.06 0.07 0.06 0.06 0.04 0.04 0.07 0.10 0.20 0.23 0.19 0.26 0.06 0.01 0.15 0.41 0.41 0.42 0.26 0.20 0.14 0.17 0.05 0.23 0.34 0.23 0.15 0.39 0.34 0.15 0.03 0.04 0.02 0.01 0.01 0.04 0.01 0.04 0.04 0.02 0.12 0.21 0.17 0.15 0.15 0.19 0.13 0.14 0.14 0.14 0.15 0.13 0.18 0.18 0.15 0.15 0.12 0.08 0.07 0.05 0.04 0.04 0.03 0.05 0.05 0.06
0.00 0.00 0.00 0.00 0.00 0.00 0.00 0.01 0.01 0.02 0.06 0.01 0.09 0.02 0.06 0.11 0.08 0.08 0.45 0.31 0.66 0.14 0.35 0.32 0.22 0.34 0.19 0.09 0.35 0.64 0.54 0.15 0.02 0.04 0.01 0.02 0.29 0.64 0.66 0.60 0.50 0.18 0.07 0.13 0.18 0.08 0.03 0.04 0.02 0.07 0.02 0.04 0.11 0.19 0.27 0.09 0.26 0.34 0.15 0.14 0.16 0.15 0.16 0.19 0.16 0.13 0.15 0.17 0.15 0.14 0.25 0.18 0.17 0.19 0.18 0.10 0.07 0.07 0.05 0.06 0.04 0.09 0.04 0.03 0.06
0.01 0.01 0.01 0.01 0.00 0.00 0.01 0.01 0.01 0.01 0.02 0.01 0.01 0.03 0.14 0.03 0.09 0.02 0.03 0.06 0.12 0.52 0.32 0.23 0.21 0.07 0.12 0.09 0.22 0.19 0.22 0.25 0.11 0.02 0.04 0.06 0.01 0.02 0.08 0.37 0.34 0.37 0.16 0.05 0.10 0.38 0.25 0.03 0.03 0.05 0.02 0.03 0.00 0.03 0.07 0.08 0.08 0.08 0.10 0.17 0.32 0.36 0.29 0.33 0.37 0.35 0.27 0.27 0.29 0.30 0.28 0.24 0.15 0.16 0.19 0.19 0.12 0.11 0.13 0.14 0.10 0.08 0.07 0.07 0.09
0.00 0.00 0.01 0.01 0.01 0.02 0.01 0.01 0.02 0.02 0.04 0.02 0.01 0.05 0.13 0.04 0.05 0.03 0.12 0.07 0.14 0.38 0.52 0.37 0.55 0.79 0.28 0.48 0.26 0.12 0.16 0.33 0.32 0.11 0.39 0.37 0.40 0.07 0.29 0.19 0.31 0.25 0.37 0.24 0.20 0.13 0.06 0.09 0.06 0.07 0.08 0.05 0.02 0.05 0.02 0.01 0.02 0.05 0.06 0.08 0.14 0.20 0.20 0.17 0.18 0.11 0.15 0.16 0.10 0.09 0.05 0.09 0.07 0.07 0.12 0.09 0.09 0.10 0.05 0.04 0.06 0.03 0.03 0.05 0.07
0.01 0.01 0.01 0.01 0.01 0.01 0.03 0.02 0.08 0.21 0.05 0.03 0.02 0.02 0.01 0.02 0.05 0.03 0.22 0.08 0.05 0.07 0.02 0.19 0.11 0.25 0.29 0.34 0.26 0.33 0.20 0.19 0.15 0.14 0.08 0.04 0.13 0.22 0.18 0.24 0.26 0.16 0.03 0.04 0.34 0.23 0.22 0.14 0.10 0.03 0.01 0.01 0.03 0.01 0.02 0.07 0.05 0.05 0.04 0.03 0.05 0.07 0.17 0.20 0.22 0.21 0.06 0.03 0.02 0.02 0.04 0.03 0.02 0.04 0.03 0.04 0.04 0.03 0.03 0.05 0.03 0.03 0.07 0.05 0.06
0.01 0.01 0.01 0.01 0.01 0.01 0.02 0.02 0.03 0.03 0.04 0.04 0.04 0.03 0.05 0.02 0.01 0.01 0.04 0.03 0.05 0.04 0.04 0.13 0.19 0.07 0.22 0.20 0.22 0.11 0.18 0.12 0.16 0.34 0.25 0.19 0.24 0.22 0.22 0.12 0.35 0.26 0.21 0.54 0.32 0.15 0.10 0.21 0.43 0.06 0.11 0.03 0.03 0.02 0.01 0.01 0.05 0.07 0.11 0.10 0.11 0.10 0.05 0.07 0.11 0.15 0.13 0.09 0.03 0.09 0.03 0.06 0.03 0.01 0.01 0.02 0.01 0.02 0.01 0.01 0.02 0.02 0.05 0.04 0.06
0.01 0.01 0.01 0.01 0.02 0.01 0.04 0.06 0.14 0.04 0.02 0.02 0.03 0.03 0.07 0.15 0.09 0.09 0.06 0.02 0.02 0.02 0.03 0.01 0.02 0.04 0.04 0.08 0.22 0.27 0.57 0.33 0.17 0.23 0.09 0.11 0.18 0.15 0.11 0.23 0.16 0.05 0.18 0.33 0.29 0.18 0.22 0.16 0.14 0.16 0.19 0.08 0.07 0.05 0.07 0.14 0.16 0.17 0.02 0.06 0.07 0.07 0.06 0.08 0.13 0.12 0.13 0.07 0.02 0.04 0.03 0.02 0.03 0.01 0.01 0.01 0.01 0.02 0.02 0.01 0.02 0.04 0.05 0.05 0.05
0.01 0.02 0.05 0.01 0.01 0.01 0.05 0.15 0.17 0.04 0.12 0.06 0.28 0.03 0.08 0.04 0.21 0.31 0.61 0.26 0.08 0.09 0.01 0.00 0.01 0.01 0.07 0.06 0.03 0.03 0.10 0.26 0.39 0.50 0.37 0.22 0.19 0.35 0.37 0.18 0.31 0.51 0.19 0.12 0.37 0.36 0.20 0.20 0.16 0.20 0.10 0.16 0.09 0.12 0.06 0.11 0.09 0.16 0.26 0.21 0.13 0.04 0.01 0.04 0.04 0.06 0.09 0.19 0.09 0.13 0.09 0.07 0.03 0.03 0.04 0.05 0.06 0.07 0.07 0.05 0.05 0.06 0.06 0.06 0.04
0.04 0.08 0.07 0.05 0.03 0.03 0.03 0.05 0.09 0.06 0.03 0.24 0.11 0.07 0.05 0.06 0.11 0.16 0.19 0.49 0.57 0.09 0.23 0.07 0.03 0.01 0.00 0.02 0.05 0.04 0.05 0.11 0.10 0.05 0.11 0.11 0.20 0.30 0.27 0.40 0.23 0.28 0.25 0.18 0.17 0.20 0.31 0.20 0.25 0.13 0.10 0.05 0.07 0.04 0.09 0.15 0.05 0.07 0.18 0.28 0.37 0.22 0.17 0.15 0.10 0.08 0.07 0.12 0.18 0.19 0.22 0.20 0.17 0.13 0.09 0.13 0.07 0.08 0.08 0.09 0.08 0.08 0.06 0.05 0.05
0.06 0.05 0.04 0.10 0.09 0.08 0.05 0.13 0.40 0.09 0.05 0.04 0.06 0.11 0.08 0.06 0.09 0.09 0.09 0.08 0.12 0.22 0.28 0.54 0.76 0.61 0.92 0.65 0.24 0.17 0.09 0.03 0.12 0.09 0.11 0.13 0.15 0.13 0.21 0.36 0.41 0.36 0.40 0.32 0.28 0.20 0.24 0.26 0.46 0.34 0.17 0.12 0.13 0.11 0.12 0.08 0.19 0.18 0.25 0.27 0.25 0.30 0.25 0.28 0.33 0.28 0.16 0.10 0.09 0.12 0.17 0.18 0.26 0.26 0.19 0.18 0.14 0.11 0.10 0.09 0.09 0.11 0.11 0.09 0.08
0.11 0.14 0.08 0.12 0.18 0.15 0.15 0.24 0.20 0.15 0.11 0.15 0.04 0.09 0.13 0.07 0.04 0.08 0.15 0.20 0.17 0.07 0.05 0.03 0.06 0.14 0.22 0.38 0.30 0.36 0.26 0.27 0.51 0.60 0.39 0.09 0.14 0.19 0.16 0.13 0.25 0.30 0.24 0.21 0.23 0.30 0.25 0.27 0.28 0.33 0.39 0.21 0.13 0.17 0.13 0.17 0.11 0.09 0.13 0.26 0.19 0.32 0.28 0.37 0.21 0.24 0.25 0.26 0.19 0.14 0.13 0.15 0.14 0.15 0.18 0.18 0.15 0.16 0.15 0.15 0.15 0.14 0.15 0.16 0.16
0.18 0.21 0.22 0.18 0.24 0.27 0.23 0.18 0.11 0.17 0.17 0.24 0.22 0.05 0.05 0.05 0.04 0.05 0.10 0.08 0.07 0.13 0.20 0.11 0.03 0.01 0.05 0.07 0.14 0.33 0.37 0.31 0.45 0.15 0.26 0.36 0.29 0.39 0.41 0.19 0.30 0.31 0.27 0.30 0.32 0.28 0.39 0.32 0.25 0.29 0.29 0.25 0.20 0.29 0.16 0.44 0.21 0.15 0.15 0.13 0.11 0.15 0.21 0.26 0.26 0.29 0.23 0.26 0.26 0.28 0.25 0.23 0.21 0.23 0.25 0.27 0.20 0.17 0.16 0.14 0.15 0.14 0.14 0.15 0.17
0.19 0.23 0.24 0.33 0.31 0.25 0.33 0.20 0.28 0.13 0.07 0.08 0.08 0.09 0.12 0.07 0.08 0.03 0.07 0.05 0.10 0.17 0.33 0.09 0.12 0.21 0.05 0.06 0.10 0.23 0.37 0.21 0.26 0.28 0.23 0.11 0.42 0.33 0.21 0.43 0.44 0.55 0.30 0.22 0.32 0.30 0.36 0.34 0.34 0.32 0.35 0.29 0.24 0.19 0.18 0.29 0.25 0.25 0.23 0.22 0.18 0.13 0.12 0.13 0.16 0.23 0.28 0.40 0.32 0.29 0.33 0.33 0.31 0.32 0.32 0.31 0.23 0.17 0.13 0.12 0.14 0.15 0.12 0.10 0.14
0.24 0.25 0.26 0.25 0.22 0.24 0.21 0.29 0.24 0.13 0.16 0.19 0.14 0.12 0.10 0.08 0.06 0.09 0.17 0.13 0.09 0.06 0.16 0.19 0.27 0.22 0.14 0.08 0.04 0.33 0.13 0.30 0.35 0.39 0.52 0.73 0.60 0.47 0.18 0.42 0.33 0.47 0.41 0.47 0.43 0.22 0.19 0.15 0.25 0.28 0.21 0.24 0.31 0.35 0.22 0.28 0.25 0.23 0.23 0.25 0.26 0.22 0.19 0.17 0.17 0.19 0.26 0.35 0.42 0.36 0.34 0.32 0.30 0.28 0.26 0.23 0.19 0.14 0.15 0.14 0.14 0.16 0.17 0.14 0.11
0.37 0.45 0.37 0.30 0.24 0.19 0.16 0.15 0.14 0.17 0.31 0.16 0.11 0.09 0.09 0.09 0.08 0.09 0.13 0.04 0.16 0.22 0.27 0.18 0.16 0.08 0.17 0.31 0.16 0.11 0.10 0.20 0.37 0.35 0.22 0.22 0.40 0.75 0.91 0.93 0.93 0.57 0.77 0.55 0.37 0.30 0.27 0.27 0.20 0.24 0.24 0.18 0.23 0.26 0.28 0.25 0.26 0.26 0.25 0.26 0.34 0.28 0.29 0.30 0.32 0.32 0.31 0.25 0.21 0.19 0.21 0.24 0.20 0.18 0.16 0.12 0.09 0.11 0.13 0.13 0.12 0.12 0.14 0.14 0.11
0.45 0.43 0.34 0.26 0.23 0.21 0.19 0.20 0.19 0.18 0.17 0.34 0.48 0.22 0.12 0.09 0.10 0.14 0.18 0.26 0.44 0.41 0.15 0.28 0.41 0.30 0.27 0.26 0.19 0.28 0.40 0.29 0.23 0.21 0.22 0.53 0.17 0.64 0.60 0.21 0.22 0.30 0.33 0.23 0.31 0.43 0.37 0.17 0.11 0.13 0.18 0.24 0.30 0.29 0.39 0.41 0.34 0.33 0.31 0.30 0.31 0.33 0.33 0.33 0.31 0.32 0.28 0.20 0.18 0.20 0.20 0.20 0.18 0.16 0.14 0.10 0.10 0.11 0.11 0.11 0.14 0.15 0.14 0.12 0.13
0.50 0.41 0.35 0.32 0.26 0.23 0.22 0.23 0.22 0.16 0.18 0.17 0.19 0.56 0.43 0.32 0.19 0.24 0.30 0.36 0.25 0.69 0.82 0.86 0.71 0.77 0.65 0.16 0.13 0.23 0.67 0.77 0.75 0.43 0.41 0.44 0.35 0.19 0.49 0.19 0.14 0.14 0.20 0.13 0.15 0.16 0.21 0.18 0.17 0.16 0.16 0.22 0.39 0.46 0.45 0.46 0.49 0.50 0.49 0.42 0.36 0.35 0.35 0.32 0.27 0.25 0.23 0.23 0.17 0.17 0.18 0.17 0.16 0.15 0.15 0.11 0.11 0.10 0.11 0.11 0.12 0.13 0.11 0.10 0.10
0.35 0.34 0.34 0.30 0.24 0.23 0.24 0.25 0.21 0.20 0.21 0.18 0.26 0.28 0.45 0.94 0.53 0.23 0.25 0.50 0.45 0.42 0.44 0.49 0.55 0.36 0.46 0.39 0.48 0.42 0.35 0.69 0.36 0.42 0.37 0.29 0.24 0.14 0.16 0.19 0.18 0.16 0.13 0.08 0.06 0.05 0.07 0.11 0.13 0.19 0.20 0.33 0.52 0.65 0.71 0.64 0.53 0.49 0.46 0.43 0.36 0.31 0.28 0.27 0.28 0.27 0.24 0.21 0.16 0.15 0.16 0.17 0.15 0.13 0.10 0.09 0.09 0.10 0.10 0.10 0.11 0.10 0.08 0.09 0.11
0.21 0.25 0.25 0.24 0.23 0.23 0.26 0.25 0.25 0.22 0.18 0.15 0.22 0.25 0.24 0.13 0.56 0.74 0.67 0.33 0.41 0.65 0.85 0.36 0.39 0.16 0.18 0.17 0.39 0.54 0.34 0.18 0.55 0.42 0.44 0.26 0.18 0.12 0.09 0.11 0.16 0.14 0.12 0.08 0.05 0.03 0.04 0.08 0.13 0.18 0.23 0.40 0.45 0.44 0.41 0.36 0.32 0.30 0.31 0.33 0.29 0.26 0.28 0.33 0.35 0.33 0.30 0.24 0.18 0.16 0.16 0.13 0.11 0.11 0.10 0.09 0.10 0.12 0.11 0.11 0.11 0.09 0.08 0.08 0.09
0.17 0.19 0.23 0.23 0.21 0.23 0.24 0.19 0.18 0.19 0.20 0.22 0.26 0.21 0.19 0.10 0.20 0.50 0.17 0.33 0.19 0.19 0.21 0.36 0.50 0.17 0.07 0.40 0.11 0.20 0.31 0.28 0.13 0.41 0.36 0.58 0.35 0.11 0.09 0.09 0.10 0.13 0.10 0.05 0.03 0.02 0.04 0.04 0.07 0.11 0.11 0.17 0.23 0.28 0.27 0.24 0.21 0.22 0.23 0.26 0.32 0.34 0.36 0.38 0.38 0.30 0.23 0.20 0.16 0.14 0.16 0.13 0.12 0.11 0.11 0.09 0.09 0.12 0.12 0.11 0.12 0.09 0.09 0.09 0.09
0.09 0.12 0.14 0.19 0.19 0.17 0.17 0.18 0.12 0.13 0.17 0.29 0.28 0.22 0.12 0.11 0.13 0.21 0.15 0.11 0.17 0.10 0.06 0.13 0.36 0.19 0.20 0.12 0.12 0.11 0.07 0.09 0.17 0.22 0.29 0.42 0.31 0.27 0.24 0.06 0.06 0.07 0.08 0.12 0.08 0.16 0.15 0.07 0.08 0.08 0.09 0.10 0.11 0.14 0.13 0.12 0.13 0.13 0.16 0.19 0.23 0.29 0.29 0.29 0.27 0.24 0.19 0.16 0.12 0.13 0.15 0.12 0.11 0.10 0.10 0.08 0.08 0.09 0.09 0.09 0.09 0.08 0.08 0.09 0.12
0.12 0.10 0.10 0.10 0.11 0.11 0.10 0.10 0.12 0.13 0.14 0.11 0.10 0.09 0.07 0.07 0.08 0.11 0.23 0.11 0.07 0.06 0.04 0.07 0.29 0.11 0.19 0.09 0.05 0.04 0.04 0.03 0.03 0.03 0.06 0.12 0.23 0.28 0.22 0.09 0.09 0.07 0.08 0.09 0.08 0.09 0.09 0.10 0.09 0.07 0.07 0.08 0.11 0.08 0.04 0.04 0.06 0.07 0.08 0.11 0.16 0.21 0.23 0.20 0.16 0.16 0.14 0.10 0.08 0.09 0.08 0.11 0.12 0.12 0.10 0.07 0.07 0.06 0.07 0.07 0.09 0.09 0.08 0.10 0.15
0.11 0.13 0.15 0.15 0.15 0.17 0.19 0.19 0.18 0.14 0.11 0.09 0.09 0.08 0.07 0.06 0.06 0.07 0.07 0.06 0.05 0.04 0.03 0.04 0.09 0.06 0.04 0.04 0.05 0.04 0.04 0.04 0.03 0.02 0.03 0.05 0.12 0.19 0.23 0.22 0.16 0.18 0.17 0.10 0.10 0.10 0.12 0.15 0.18 0.19 0.19 0.17 0.08 0.03 0.03 0.03 0.04 0.04 0.05 0.08 0.13 0.15 0.12 0.11 0.09 0.07 0.07 0.06 0.07 0.08 0.09 0.09 0.12 0.13 0.11 0.08 0.06 0.07 0.07 0.06 0.06 0.05 0.06 0.07 0.12
0.12 0.14 0.16 0.16 0.16 0.17 0.16 0.16 0.15 0.15 0.12 0.10 0.10 0.09 0.09 0.07 0.06 0.06 0.06 0.05 0.04 0.03 0.03 0.05 0.08 0.08 0.04 0.04 0.04 0.05 0.04 0.04 0.03 0.04 0.03 0.05 0.07 0.13 0.23 0.28 0.26 0.22 0.16 0.16 0.17 0.18 0.19 0.19 0.17 0.15 0.10 0.05 0.02 0.02 0.01 0.02 0.02 0.03 0.06 0.08 0.09 0.07 0.06 0.07 0.06 0.06 0.06 0.05 0.06 0.06 0.08 0.08 0.08 0.09 0.10 0.08 0.05 0.06 0.08 0.07 0.07 0.09 0.09 0.08 0.10
0.02 0.04 0.06 0.08 0.11 0.13 0.15 0.15 0.15 0.15 0.13 0.11 0.09 0.08 0.07 0.06 0.06 0.06 0.05 0.05 0.04 0.03 0.03 0.03 0.06 0.06 0.04 0.04 0.03 0.04 0.04 0.03 0.04 0.04 0.04 0.07 0.09 0.16 0.25 0.30 0.28 0.22 0.20 0.20 0.20 0.19 0.16 0.13 0.09 0.05 0.02 0.01 0.01 0.01 0.01 0.01 0.02 0.02 0.03 0.04 0.05 0.05 0.04 0.03 0.03 0.03 0.03 0.04 0.05 0.06 0.08 0.09 0.12 0.11 0.09 0.08 0.07 0.05 0.07 0.11 0.13 0.14 0.14 0.13 0.13
0.01 0.01 0.02 0.02 0.02 0.04 0.05 0.06 0.08 0.08 0.09 0.08 0.07 0.06 0.06 0.06 0.06 0.05 0.05 0.04 0.04 0.03 0.03 0.03 0.05 0.07 0.07 0.05 0.04 0.04 0.05 0.06 0.07 0.08 0.10 0.12 0.12 0.16 0.22 0.28 0.25 0.16 0.12 0.10 0.08 0.07 0.07 0.07 0.07 0.04 0.01 0.00 0.00 0.01 0.01 0.01 0.01 0.01 0.01 0.02 0.03 0.04 0.03 0.02 0.02 0.03 0.02 0.03 0.04 0.05 0.05 0.05 0.08 0.09 0.10 0.10 0.10 0.09 0.09 0.09 0.09 0.10 0.13 0.15 0.21